Wind_Speed
25 24 22 21 19 18 16 14 11 9 7 5 5 5 5 4 7 7 7 6 7 13 14 14 12 15 19 22 23 25 22 22 21 22 21 22 24 23 21 20 21 21 19 13 11
26 26 25 23 22 21 20 18 16 13 10 8 5 4 5 4 5 7 7 7 8 11 10 12 14 14 18 21 22 29 23 20 18 18 25 25 26 22 22 19 18 19 19 16 12
26 27 26 25 24 23 23 21 19 17 14 11 9 6 4 5 4 6 9 11 10 10 8 9 13 13 16 17 19 23 23 20 19 18 26 31 30 24 23 20 20 18 21 21 18
27 27 27 27 26 25 24 24 23 21 18 16 14 11 7 5 4 5 9 12 12 10 8 6 11 15 14 17 16 21 19 21 20 21 25 30 31 34 30 28 28 21 20 22 21
23 28 29 28 27 26 25 25 25 24 22 19 18 15 12 9 7 5 7 12 12 10 9 6 6 11 12 13 14 18 17 21 22 23 25 26 29 31 30 32 26 25 21 20 20
20 25 30 30 29 27 27 26 27 27 26 24 22 19 16 13 11 8 7 10 15 10 11 10 7 8 10 8 11 12 16 17 19 20 21 24 27 27 27 27 30 27 23 19 19
24 23 25 30 30 29 28 28 27 28 28 27 25 23 21 16 15 13 11 9 13 14 12 11 11 9 9 8 9 8 8 10 13 14 17 19 22 23 23 26 26 26 29 22 19
28 27 25 26 30 30 30 30 29 28 28 29 27 26 25 21 18 16 13 11 11 14 13 12 15 12 11 9 8 6 5 6 5 9 12 14 16 19 20 21 24 28 27 27 20
33 31 29 28 27 28 31 31 30 30 28 28 30 30 28 24 22 18 16 14 13 13 15 14 17 17 13 13 6 4 2 3 6 7 10 10 11 14 17 20 22 28 22 24 20
37 36 34 32 29 28 28 30 31 32 31 28 28 30 31 27 26 21 19 18 16 15 14 14 15 20 17 13 6 9 4 5 6 6 7 7 11 15 16 18 22 27 19 17 17
34 39 37 35 33 30 29 29 30 32 33 33 31 32 28 28 29 26 23 21 19 17 16 16 15 15 16 22 16 16 13 10 6 6 3 4 9 13 15 16 20 23 21 17 16
28 34 40 39 36 33 32 31 30 31 32 34 34 34 32 31 30 30 26 23 21 19 20 18 16 15 17 19 18 17 17 13 9 5 1 3 6 8 12 13 17 19 18 16 14
23 26 36 42 40 36 34 33 31 29 31 33 33 35 35 34 33 32 30 26 24 24 20 19 17 23 18 17 17 18 17 16 12 9 5 1 5 6 7 11 14 18 18 14 13
23 23 25 37 42 39 36 34 32 30 29 32 34 34 35 34 36 36 34 31 29 26 26 25 28 22 22 18 17 13 21 15 13 8 5 8 6 14 7 8 15 16 18 17 17
24 23 23 26 37 41 38 35 33 31 29 33 33 34 35 35 34 35 36 33 31 29 27 25 28 25 25 18 21 18 22 16 15 11 9 11 6 12 14 9 11 13 16 17 23
22 24 23 22 27 37 40 38 34 32 34 32 31 33 34 36 35 35 37 35 35 32 29 33 30 29 24 22 25 25 20 18 17 16 10 13 11 6 12 11 9 11 14 22 27
22 22 25 22 23 27 37 39 35 34 34 34 31 32 32 34 35 37 39 37 36 34 33 35 30 31 27 25 25 22 22 17 15 14 12 12 13 9 14 10 9 8 15 21 25
21 22 23 23 22 24 27 35 39 38 35 33 33 31 31 33 34 36 39 40 41 37 36 36 35 30 28 28 25 23 22 21 18 18 14 19 10 11 17 8 11 12 13 20 15
16 20 24 21 24 24 25 28 33 37 36 33 33 32 32 32 34 35 36 38 39 37 38 38 35 34 32 29 31 28 27 20 21 21 19 12 16 13 15 13 14 15 17 17 9
12 15 21 23 24 26 26 29 29 33 33 34 33 35 33 36 33 34 37 37 37 36 37 40 37 38 34 34 34 31 24 26 25 22 19 15 17 12 18 14 14 10 15 12 6
14 15 16 22 25 27 27 27 29 31 32 32 33 34 36 34 35 33 36 37 34 33 35 38 35 40 39 36 36 35 31 30 21 23 21 16 15 13 17 14 9 12 11 9 11
15 15 17 21 23 26 28 29 30 33 33 33 33 34 35 34 34 33 35 35 33 33 33 32 32 37 35 37 39 37 31 27 28 26 26 23 20 20 22 17 15 17 15 9 16
17 16 14 17 22 26 29 30 32 32 34 34 33 34 34 33 33 33 34 33 31 30 32 32 34 35 36 36 40 39 35 34 27 24 24 23 16 21 24 21 20 19 17 14 14
19 17 16 17 19 26 29 30 30 28 28 30 32 33 35 35 33 32 32 31 29 30 30 32 33 33 28 28 29 37 37 35 30 28 24 26 22 23 26 24 18 17 20 16 15
18 18 16 13 14 18 24 25 27 28 28 27 30 34 35 35 34 34 31 29 25 24 27 30 29 32 32 32 36 34 35 33 35 32 29 21 24 20 25 21 19 20 19 16 15
18 15 14 10 8 13 17 21 24 29 28 27 30 32 33 35 36 37 34 30 29 23 22 24 25 28 30 32 35 37 37 36 35 34 32 31 28 22 23 15 18 20 19 18 18
15 15 11 9 8 12 16 19 21 26 28 29 30 30 32 35 36 32 31 30 28 26 24 25 25 26 27 26 32 38 38 36 33 33 30 24 22 23 16 18 19 23 25 22 22
Wind_Direction
210 210 211 210 211 208 204 204 199 195 186 178 150 125 104 90 67 74 93 104 101 81 103 107 124 108 98 93 94 93 83 87 81 75 62 53 52 52 53 53 52 49 53 59 91
216 212 212 213 213 212 208 206 208 208 209 203 194 149 115 100 96 106 98 95 92 77 98 122 126 120 104 99 93 88 90 84 81 75 65 56 53 53 52 54 53 48 50 63 67
222 218 215 215 216 216 214 210 209 212 213 216 215 197 163 128 116 117 114 102 110 85 80 131 132 123 114 108 98 94 94 87 80 75 69 72 60 48 41 49 57 57 55 66 62
224 224 222 219 219 218 218 218 213 213 215 217 221 214 194 182 166 125 122 110 102 93 109 148 132 126 128 118 110 98 98 94 90 81 79 72 65 57 53 51 54 51 58 64 54
227 225 225 224 223 221 220 221 219 216 217 219 224 219 209 201 179 164 131 123 112 100 114 136 146 139 134 131 117 113 108 103 94 88 80 70 67 65 55 50 54 51 54 50 54
230 226 226 225 224 223 223 222 222 219 218 219 225 226 219 210 199 189 169 131 126 132 131 141 143 134 136 134 121 125 119 111 105 97 86 80 68 60 55 53 45 41 41 47 50
235 232 227 227 224 223 224 222 222 222 219 220 223 229 227 221 211 200 193 171 141 141 139 141 155 147 144 138 125 124 124 118 116 101 85 82 72 62 55 49 46 38 34 41 43
233 234 233 229 228 226 224 224 222 223 221 221 222 228 233 224 224 213 204 197 172 158 153 152 168 157 159 147 132 129 117 108 110 95 80 74 62 59 56 41 39 38 42 38 46
235 234 233 233 230 228 228 226 225 224 222 221 222 226 232 231 226 221 214 209 196 189 171 164 171 174 168 161 149 154 231 147 127 91 85 62 47 39 41 41 32 32 46 43 55
238 236 234 233 233 231 230 229 224 225 224 223 223 225 228 231 235 225 219 215 209 204 198 189 172 176 183 182 225 195 209 201 136 125 98 50 37 36 27 36 31 26 38 46 36
242 238 237 234 232 231 231 230 229 224 222 224 224 228 227 227 234 231 224 219 215 212 212 211 205 186 191 203 214 204 203 210 192 153 129 49 53 32 18 27 22 18 29 34 23
251 243 238 237 233 231 231 232 230 229 226 224 224 226 226 226 229 234 229 224 223 219 217 216 224 214 213 194 195 206 214 222 222 192 192 86 56 20 14 14 8 11 17 36 28
258 254 242 236 236 233 231 231 232 230 230 226 224 225 226 226 226 232 232 227 221 220 217 219 227 227 227 217 199 205 209 226 230 235 275 195 318 343 359 8 353 351 0 7 4
257 257 253 239 233 234 233 231 231 231 232 230 225 222 224 224 226 229 232 229 226 223 220 218 227 228 232 229 223 220 234 229 230 236 281 272 327 311 326 347 346 336 345 342 359
256 257 256 247 236 230 232 231 231 231 231 228 225 222 223 222 225 228 231 230 228 227 226 229 230 230 233 233 232 218 238 234 243 245 271 295 312 287 298 319 328 338 340 344 346
259 254 254 251 241 232 228 230 230 230 230 230 227 224 222 223 221 225 229 230 229 229 225 226 225 226 230 228 235 230 245 237 251 256 261 247 276 306 281 303 320 329 343 336 336
259 255 250 249 244 236 230 227 229 230 228 228 228 225 222 222 221 223 228 230 231 231 229 233 229 228 226 230 238 241 237 241 259 268 255 244 274 266 287 312 333 316 318 327 329
256 252 252 244 244 239 232 228 229 230 231 229 227 226 223 221 220 221 227 228 227 227 228 236 236 236 230 233 244 240 231 228 242 254 249 248 270 275 287 289 305 319 333 334 331
269 254 251 243 241 238 233 230 228 228 230 228 228 225 225 223 221 221 224 228 230 228 226 236 231 239 236 235 238 243 236 227 232 252 243 256 271 286 290 282 290 301 308 326 347
291 267 253 247 239 236 233 228 229 227 224 224 224 224 223 224 223 222 225 228 231 230 228 237 234 242 238 236 238 238 240 228 223 228 247 253 255 255 272 296 303 286 293 315 351
292 276 267 251 242 239 234 231 228 226 224 220 220 222 224 224 223 224 229 232 232 232 234 237 230 244 240 236 242 243 240 238 221 236 238 254 269 238 274 294 298 278 293 296 310
314 296 275 260 248 239 234 228 227 226 225 223 219 221 224 225 223 224 228 230 227 229 231 234 237 236 239 240 234 237 235 233 232 238 238 234 235 263 275 283 293 309 293 296 310
329 305 292 278 253 242 236 228 226 225 223 222 222 221 222 224 224 225 228 229 228 227 229 232 231 231 234 232 234 236 237 238 232 229 234 244 252 262 270 280 279 291 286 290 304
339 328 309 296 267 241 231 228 225 224 222 221 220 221 223 223 224 227 231 230 229 227 225 228 231 230 235 246 248 240 239 240 237 236 240 247 248 252 262 271 278 278 284 288 296
342 337 327 314 277 243 226 223 219 216 216 214 215 217 219 224 223 227 229 231 228 223 223 224 230 233 232 231 241 239 243 242 241 242 234 243 254 259 260 263 277 266 276 285 287
344 338 327 311 273 236 223 220 215 213 214 211 213 215 215 223 225 218 225 230 228 221 222 222 231 233 232 235 241 244 243 242 246 246 246 241 241 231 252 248 261 260 273 283 284
339 341 327 303 254 241 222 221 219 216 216 215 214 216 218 220 227 228 227 234 239 237 227 227 235 235 237 236 240 245 247 245 245 249 253 247 256 255 250 257 255 261 269 279 291
Height
5892 5895 5897 5899 5902 5904 5906 5908 5909 5911 5913 5913 5914 5916 5917 5918 5919 5919 5920 5921 5921 5919 5918 5920 5921 5920 5920 5919 5918 5916 5921 5918 5916 5914 5913 5910 5907 5905 5902 5899 5896 5895 5892 5892 5891
5889 5892 5895 5897 5900 5902 5904 5906 5908 5910 5912 5913 5914 5916 5917 5918 5919 5920 5921 5922 5923 5922 5921 5922 5923 5923 5922 5922 5921 5918 5922 5920 5919 5917 5915 5912 5910 5907 5904 5901 5899 5898 5896 5894 5893
5886 5889 5892 5895 5897 5900 5902 5904 5907 5909 5911 5912 5913 5916 5918 5919 5920 5921 5921 5922 5923 5923 5923 5924 5925 5925 5925 5925 5924 5922 5923 5922 5921 5920 5918 5914 5912 5910 5906 5903 5901 5901 5899 5897 5896
5883 5886 5889 5892 5895 5898 5900 5902 5905 5907 5909 5911 5913 5916 5918 5919 5921 5921 5921 5922 5923 5924 5925 5926 5927 5927 5928 5927 5927 5928 5925 5924 5924 5923 5921 5918 5916 5913 5910 5907 5905 5905 5903 5900 5898
5879 5882 5885 5888 5891 5894 5896 5899 5902 5905 5907 5910 5911 5914 5917 5919 5920 5920 5921 5923 5924 5925 5926 5927 5928 5929 5929 5930 5929 5929 5927 5926 5926 5926 5923 5922 5919 5917 5915 5912 5910 5908 5906 5904 5901
5875 5878 5881 5884 5887 5890 5893 5896 5898 5902 5905 5907 5909 5911 5914 5917 5919 5920 5921 5923 5924 5926 5926 5928 5929 5930 5930 5930 5930 5930 5929 5928 5927 5926 5925 5924 5921 5920 5918 5916 5914 5912 5909 5907 5905
5871 5873 5876 5879 5882 5886 5889 5892 5895 5897 5901 5904 5906 5908 5911 5915 5917 5919 5920 5923 5924 5927 5927 5928 5929 5930 5931 5931 5931 5931 5931 5929 5928 5927 5927 5925 5923 5921 5920 5919 5917 5914 5912 5910 5909
5866 5868 5871 5874 5877 5881 5884 5888 5891 5893 5897 5900 5903 5904 5907 5911 5913 5916 5919 5921 5924 5926 5927 5927 5929 5930 5931 5932 5932 5933 5933 5932 5931 5930 5929 5928 5927 5924 5921 5920 5919 5918 5915 5913 5912
5860 5863 5866 5869 5872 5876 5879 5882 5886 5889 5892 5896 5899 5900 5903 5906 5909 5913 5916 5919 5921 5924 5926 5927 5928 5930 5933 5934 5936 5935 5939 5934 5933 5931 5931 5930 5928 5926 5924 5921 5920 5919 5918 5916 5915
5853 5856 5859 5862 5866 5870 5873 5876 5880 5884 5888 5891 5894 5897 5898 5903 5905 5909 5912 5916 5919 5922 5924 5926 5928 5930 5932 5935 5941 5936 5937 5935 5933 5934 5932 5931 5930 5927 5925 5924 5921 5920 5918 5917 5916
5845 5848 5852 5855 5860 5864 5868 5871 5876 5879 5882 5885 5890 5890 5895 5898 5900 5904 5908 5912 5915 5919 5921 5923 5925 5928 5932 5930 5932 5933 5933 5934 5934 5933 5933 5933 5932 5929 5927 5925 5923 5921 5920 5919 5917
5837 5840 5844 5848 5853 5857 5861 5864 5868 5873 5876 5879 5883 5886 5889 5893 5896 5898 5903 5908 5911 5915 5918 5921 5922 5926 5926 5928 5931 5931 5932 5934 5934 5933 5934 5933 5932 5931 5929 5926 5924 5922 5921 5920 5917
5831 5833 5836 5840 5845 5850 5853 5857 5861 5865 5869 5873 5876 5880 5884 5888 5891 5894 5898 5903 5907 5910 5915 5917 5921 5919 5922 5925 5928 5930 5932 5932 5933 5933 5934 5933 5932 5931 5929 5927 5924 5922 5922 5920 5918
5825 5826 5828 5831 5838 5841 5846 5850 5854 5859 5862 5866 5870 5873 5877 5882 5886 5888 5892 5898 5902 5906 5909 5912 5913 5916 5918 5921 5924 5930 5929 5930 5931 5932 5938 5934 5936 5930 5929 5928 5925 5922 5921 5920 5918
5819 5821 5822 5824 5827 5833 5839 5843 5847 5852 5855 5859 5863 5867 5871 5876 5880 5883 5887 5891 5896 5900 5905 5909 5909 5912 5914 5918 5919 5923 5923 5926 5928 5930 5933 5932 5935 5931 5929 5927 5925 5923 5920 5920 5917
5814 5815 5816 5818 5820 5824 5830 5836 5841 5846 5846 5851 5856 5860 5865 5869 5874 5878 5881 5886 5890 5893 5899 5899 5903 5906 5910 5913 5914 5918 5921 5924 5926 5927 5931 5931 5932 5934 5930 5926 5924 5922 5921 5918 5915
5808 5808 5810 5812 5814 5817 5822 5828 5834 5836 5841 5846 5849 5854 5858 5863 5867 5871 5874 5879 5884 5889 5892 5894 5899 5901 5906 5908 5910 5914 5918 5924 5928 5928 5929 5923 5928 5931 5925 5923 5923 5922 5921 5918 5914
5801 5803 5803 5807 5808 5811 5815 5820 5824 5828 5833 5839 5843 5847 5852 5856 5860 5864 5868 5872 5876 5882 5887 5889 5893 5897 5902 5904 5907 5909 5914 5921 5924 5926 5926 5920 5927 5925 5922 5921 5921 5920 5920 5917 5913
5796 5797 5797 5801 5802 5805 5809 5813 5816 5820 5826 5832 5837 5841 5845 5849 5854 5858 5861 5866 5870 5876 5882 5883 5889 5889 5894 5899 5901 5904 5907 5915 5921 5921 5920 5925 5923 5920 5918 5919 5918 5918 5917 5915 5913
5792 5791 5792 5794 5796 5799 5802 5805 5809 5813 5818 5823 5828 5833 5838 5842 5848 5852 5855 5859 5863 5869 5874 5875 5883 5882 5888 5891 5894 5898 5903 5906 5911 5916 5918 5920 5919 5921 5916 5915 5915 5915 5914 5913 5912
5787 5787 5786 5787 5790 5792 5796 5800 5803 5806 5811 5816 5821 5825 5830 5835 5841 5845 5849 5853 5858 5864 5868 5871 5877 5877 5880 5885 5888 5891 5895 5900 5908 5911 5914 5916 5916 5912 5913 5912 5912 5912 5911 5910 5909
5781 5782 5781 5781 5783 5785 5788 5792 5795 5799 5805 5810 5814 5818 5823 5829 5834 5838 5842 5845 5852 5856 5861 5866 5870 5872 5874 5879 5880 5883 5889 5894 5897 5903 5906 5910 5914 5907 5908 5908 5908 5908 5907 5906 5905
5777 5775 5775 5774 5775 5777 5780 5784 5787 5792 5797 5802 5807 5812 5817 5822 5828 5831 5835 5840 5845 5849 5854 5858 5862 5865 5868 5871 5873 5876 5882 5887 5892 5898 5902 5902 5908 5905 5904 5904 5903 5904 5903 5902 5901
5774 5771 5769 5767 5767 5768 5772 5776 5781 5786 5790 5795 5800 5806 5811 5815 5820 5825 5829 5834 5838 5842 5847 5850 5855 5860 5864 5867 5868 5871 5875 5879 5884 5889 5894 5896 5898 5899 5898 5899 5898 5899 5899 5898 5897
5771 5768 5765 5763 5761 5762 5765 5770 5774 5778 5783 5788 5794 5798 5804 5809 5815 5819 5823 5828 5832 5836 5840 5844 5848 5852 5857 5859 5860 5864 5868 5872 5874 5880 5886 5892 5893 5894 5892 5893 5893 5893 5894 5894 5893
5769 5765 5762 5760 5759 5760 5762 5765 5767 5772 5778 5783 5787 5791 5797 5802 5805 5810 5816 5821 5825 5831 5834 5837 5841 5844 5848 5852 5854 5856 5861 5865 5867 5871 5875 5879 5883 5886 5886 5887 5888 5889 5889 5889 5888
5766 5763 5760 5759 5758 5759 5759 5761 5765 5768 5773 5777 5781 5786 5791 5794 5798 5805 5811 5815 5820 5824 5828 5831 5834 5837 5842 5847 5849 5850 5853 5858 5862 5865 5869 5872 5876 5877 5880 5882 5883 5884 5884 5884 5883